TimeAST,TemperatureF,Dew PointF,Humidity,Sea Level PressureIn,VisibilityMPH,Wind Direction,Wind SpeedMPH,Gust SpeedMPH,PrecipitationIn,Events,Conditions,WindDirDegrees,DateUTC
12:56 AM,79.0,71.1,77,29.97,10.0,Calm,Calm,-,N/A,,Mostly Cloudy,0,2012-11-25 04:56:00
1:56 AM,79.0,71.1,77,29.96,10.0,Calm,Calm,-,N/A,,Overcast,0,2012-11-25 05:56:00
2:56 AM,78.1,71.1,79,29.95,10.0,Calm,Calm,-,N/A,,Scattered Clouds,0,2012-11-25 06:56:00
3:56 AM,78.1,71.1,79,29.95,10.0,Calm,Calm,-,N/A,,Scattered Clouds,0,2012-11-25 07:56:00
4:56 AM,79.0,72.0,79,29.95,10.0,Calm,Calm,-,N/A,,Scattered Clouds,0,2012-11-25 08:56:00
5:56 AM,78.1,71.1,79,29.96,10.0,Calm,Calm,-,N/A,,Scattered Clouds,0,2012-11-25 09:56:00
6:56 AM,75.9,72.0,87,29.98,10.0,Calm,Calm,-,N/A,,Partly Cloudy,0,2012-11-25 10:56:00
7:56 AM,81.0,72.0,74,30.00,10.0,Calm,Calm,-,N/A,,Scattered Clouds,0,2012-11-25 11:56:00
8:56 AM,82.9,73.0,72,30.01,10.0,East,6.9,-,N/A,,Scattered Clouds,90,2012-11-25 12:56:00
9:56 AM,84.0,73.0,69,30.03,10.0,East,13.8,-,0.00,,Scattered Clouds,80,2012-11-25 13:56:00
10:56 AM,84.9,73.0,67,30.04,10.0,NE,11.5,-,N/A,,Scattered Clouds,50,2012-11-25 14:56:00
11:56 AM,86.0,72.0,63,30.02,10.0,NE,15.0,-,N/A,,Scattered Clouds,50,2012-11-25 15:56:00
12:56 PM,87.1,72.0,61,30.00,10.0,ENE,15.0,-,N/A,,Scattered Clouds,70,2012-11-25 16:56:00
1:56 PM,86.0,73.0,65,29.99,10.0,ENE,12.7,19.6,N/A,,Scattered Clouds,70,2012-11-25 17:56:00
2:56 PM,84.9,73.0,67,29.97,10.0,ENE,15.0,20.7,N/A,,Scattered Clouds,60,2012-11-25 18:56:00
3:56 PM,84.0,72.0,67,29.97,10.0,NE,11.5,-,N/A,,Scattered Clouds,50,2012-11-25 19:56:00
4:56 PM,82.9,72.0,69,29.99,10.0,ENE,12.7,-,N/A,,Scattered Clouds,60,2012-11-25 20:56:00
5:56 PM,82.0,72.0,71,29.99,10.0,ENE,12.7,-,N/A,,Scattered Clouds,60,2012-11-25 21:56:00
6:56 PM,82.0,72.0,71,30.01,10.0,ENE,10.4,-,N/A,,Scattered Clouds,60,2012-11-25 22:56:00
7:56 PM,82.0,72.0,71,30.04,10.0,ENE,10.4,-,N/A,,Partly Cloudy,60,2012-11-25 23:56:00
8:56 PM,82.0,72.0,71,30.06,10.0,ENE,9.2,-,N/A,,Scattered Clouds,60,2012-11-26 00:56:00
9:56 PM,81.0,72.0,74,30.06,10.0,ENE,10.4,-,N/A,,Partly Cloudy,60,2012-11-26 01:56:00
10:56 PM,82.0,73.0,74,30.06,10.0,ENE,12.7,-,N/A,,Scattered Clouds,60,2012-11-26 02:56:00
11:56 PM,82.0,73.0,74,30.04,10.0,NE,11.5,-,N/A,,Scattered Clouds,50,2012-11-26 03:56:00